Torna al catalogo

SL-16 DEB

AttivoLEO
NORAD 39864·DEBRIS·🇷🇺 Russia

Lanciato Dec 25, 1992 da Baikonur Cosmodrome

Loading…

Prossimi Passaggi (prossime 24 ore)

TLE

ObsoletoSource: Space-Track

Epoca: Aug 28, 2026, 22:28 UTC

1 39864U 92093LS  26240.93649818  .00000492  00000-0  24997-3 0  9994
2 39864  71.1528 345.8890 0108337 116.8384 244.3867 14.17596751629430

Traccia SL-16 DEB in tempo reale con AllMySat

Download on the App Store